Location: Celina Division
(33.3022°N, 96.7580°W)
Time: 00:32:32
(UTC+00:00)

N. Korean satellite - Pass Details

Date: 02 December 2022
Orbit: 407 x 442 km, 97.3° (Epoch: 05 February)

Event Time Altitude Azimuth Distance (km) Brightness Sun altitude
Rises 12:34:07 0° 349° (N) 2,511 9.9 -8.4°
Reaches altitude 10° 12:36:53 10° 325° (NW) 1,622 8.7 -7.9°
Maximum altitude 12:38:52 15° 290° (WNW) 1,350 8.1 -7.5°
Drops below altitude 10° 12:40:50 10° 255° (WSW) 1,601 8.7 -7.1°
Sets 12:43:32 0° 230° (SW) 2,457 9.9 -6.6°
